• In Russia
  • List of Countries
  • For 7 days
  • Water Temperature
  • Weather Map
  • Weather Widgets
  • user-avatar
    Login

    Hourly Weather Canberra

    Today, 18 August, Sunday

    Time Temperature Precipitation Wind Pressure Humidity
    00:00 +5°C° 0 mm 1 mps 710 mmHg 93%
    01:00 +4°C° 0 mm 0 mps 710 mmHg 94%
    02:00 +4°C° 0 mm 0 mps 710 mmHg 94%
    03:00 +3°C° 0 mm 0 mps 709 mmHg 93%
    04:00 +3°C° 0 mm 0 mps 709 mmHg 94%
    05:00 +3°C° 0 mm 0 mps 709 mmHg 93%
    06:00 +3°C° 0 mm 0 mps 709 mmHg 92%
    07:00 +3°C° 0 mm 0 mps 709 mmHg 90%
    08:00 +7°C° 0 mm 1 mps 709 mmHg 79%
    09:00 +10°C° 0 mm 1 mps 709 mmHg 68%
    10:00 +14°C° 0 mm 1 mps 709 mmHg 53%
    11:00 +15°C° 0 mm 2 mps 708 mmHg 51%
    12:00 +17°C° 0 mm 3 mps 707 mmHg 48%
    13:00 +18°C° 0 mm 3 mps 706 mmHg 46%
    14:00 +18°C° 0 mm 4 mps 705 mmHg 49%
    15:00 +18°C° 0 mm 4 mps 704 mmHg 52%
    16:00 +17°C° 0 mm 4 mps 704 mmHg 53%
    17:00 +14°C° 0 mm 4 mps 703 mmHg 57%
    18:00 +13°C° 0 mm 3 mps 703 mmHg 61%
    19:00 +11°C° 0 mm 3 mps 702 mmHg 65%
    20:00 +8°C° 1.1 mm 4 mps 703 mmHg 74%
    21:00 +6°C° 1.1 mm 5 mps 703 mmHg 83%
    22:00 +3°C° 1.1 mm 6 mps 703 mmHg 93%
    23:00 +3°C° 0.7 mm 6 mps 704 mmHg 92%

    Tomorrow, 19 August, Monday

    Time Temperature Precipitation Wind Pressure Humidity
    00:00 +3°C° 0.7 mm 5 mps 704 mmHg 92%
    01:00 +3°C° 0.7 mm 5 mps 705 mmHg 91%
    02:00 +2°C° 0 mm 5 mps 704 mmHg 91%
    03:00 +1°C° 0 mm 4 mps 704 mmHg 90%
    04:00 0°C° 0 mm 4 mps 704 mmHg 90%
    05:00 0°C° 0 mm 4 mps 705 mmHg 90%
    06:00 0°C° 0 mm 4 mps 705 mmHg 90%
    07:00 0°C° 0 mm 4 mps 706 mmHg 90%
    08:00 0°C° 0.1 mm 5 mps 707 mmHg 85%
    09:00 +1°C° 0.1 mm 6 mps 707 mmHg 79%
    10:00 +2°C° 0.1 mm 6 mps 708 mmHg 74%
    11:00 +3°C° 0 mm 7 mps 708 mmHg 66%
    12:00 +4°C° 0 mm 7 mps 708 mmHg 59%
    13:00 +5°C° 0 mm 8 mps 709 mmHg 51%
    14:00 +4°C° 0 mm 7 mps 709 mmHg 53%
    15:00 +4°C° 0 mm 6 mps 709 mmHg 54%
    16:00 +4°C° 0 mm 6 mps 709 mmHg 56%
    17:00 +3°C° 0 mm 5 mps 710 mmHg 64%
    18:00 +1°C° 0 mm 4 mps 710 mmHg 72%
    19:00 0°C° 0 mm 4 mps 711 mmHg 81%
    20:00 0°C° 0 mm 4 mps 711 mmHg 82%
    21:00 0°C° 0 mm 4 mps 712 mmHg 84%
    22:00 0°C° 0 mm 4 mps 712 mmHg 86%
    23:00 0°C° 0 mm 4 mps 713 mmHg 86%

    Day after tomorrow, 20 August, Tuesday

    Time Temperature Precipitation Wind Pressure Humidity
    00:00 0°C° 0 mm 4 mps 713 mmHg 86%
    01:00 0°C° 0 mm 4 mps 713 mmHg 87%
    02:00 0°C° 0 mm 4 mps 713 mmHg 88%
    03:00 -1°C° 0 mm 4 mps 712 mmHg 89%
    04:00 -1°C° 0 mm 4 mps 712 mmHg 91%
    05:00 -1°C° 0 mm 4 mps 712 mmHg 91%
    06:00 -1°C° 0 mm 4 mps 713 mmHg 91%
    07:00 -1°C° 0 mm 4 mps 713 mmHg 91%
    08:00 +1°C° 0 mm 5 mps 713 mmHg 81%
    09:00 +3°C° 0 mm 5 mps 713 mmHg 72%
    10:00 +6°C° 0 mm 5 mps 713 mmHg 62%
    11:00 +7°C° 0 mm 6 mps 713 mmHg 61%
    12:00 +8°C° 0 mm 6 mps 712 mmHg 59%
    13:00 +8°C° 0 mm 7 mps 712 mmHg 58%
    14:00 +8°C° 0 mm 7 mps 712 mmHg 60%
    15:00 +6°C° 0 mm 7 mps 711 mmHg 63%
    16:00 +6°C° 0 mm 7 mps 711 mmHg 65%
    17:00 +5°C° 0 mm 6 mps 711 mmHg 70%
    18:00 +5°C° 0 mm 6 mps 711 mmHg 75%
    19:00 +5°C° 0 mm 5 mps 711 mmHg 80%
    20:00 +4°C° 0 mm 6 mps 710 mmHg 81%
    21:00 +5°C° 0 mm 6 mps 710 mmHg 81%
    22:00 +5°C° 0 mm 7 mps 710 mmHg 82%
    23:00 +5°C° 0 mm 7 mps 709 mmHg 81%

    21 August, Wednesday

    Time Temperature Precipitation Wind Pressure Humidity
    00:00 +5°C° 0 mm 7 mps 709 mmHg 80%
    01:00 +5°C° 0 mm 7 mps 708 mmHg 80%
    02:00 +5°C° 0 mm 7 mps 708 mmHg 79%
    03:00 +5°C° 0 mm 7 mps 707 mmHg 78%
    04:00 +5°C° 0 mm 6 mps 706 mmHg 78%
    05:00 +5°C° 0 mm 6 mps 706 mmHg 78%
    06:00 +5°C° 0 mm 6 mps 706 mmHg 78%
    07:00 +5°C° 0 mm 6 mps 706 mmHg 77%
    08:00 +6°C° 0 mm 7 mps 707 mmHg 72%
    09:00 +8°C° 0 mm 7 mps 707 mmHg 66%
    10:00 +10°C° 0 mm 8 mps 707 mmHg 61%
    11:00 +10°C° 0 mm 9 mps 706 mmHg 61%
    12:00 +10°C° 0 mm 9 mps 706 mmHg 62%
    13:00 +9°C° 0 mm 10 mps 706 mmHg 62%
    14:00 +8°C° 0 mm 9 mps 706 mmHg 61%
    15:00 +8°C° 0 mm 9 mps 706 mmHg 59%
    16:00 +9°C° 0 mm 8 mps 706 mmHg 58%
    17:00 +6°C° 0 mm 7 mps 706 mmHg 62%
    18:00 +5°C° 0 mm 6 mps 707 mmHg 65%
    19:00 +4°C° 0 mm 4 mps 707 mmHg 69%
    20:00 +4°C° 0 mm 4 mps 707 mmHg 70%
    21:00 +3°C° 0 mm 4 mps 708 mmHg 71%
    22:00 +2°C° 0 mm 3 mps 708 mmHg 72%
    23:00 +2°C° 0 mm 3 mps 708 mmHg 76%

    22 August, Thursday

    Time Temperature Precipitation Wind Pressure Humidity
    00:00 +1°C° 0 mm 3 mps 708 mmHg 80%
    01:00 +1°C° 0 mm 2 mps 707 mmHg 83%
    02:00 +1°C° 0 mm 2 mps 707 mmHg 86%
    03:00 +1°C° 0 mm 2 mps 707 mmHg 88%
    04:00 -1°C° 0 mm 2 mps 707 mmHg 90%
    05:00 -1°C° 0 mm 2 mps 707 mmHg 90%
    06:00 0°C° 0 mm 3 mps 707 mmHg 90%
    07:00 0°C° 0 mm 3 mps 707 mmHg 90%
    08:00 +3°C° 0 mm 4 mps 708 mmHg 78%
    09:00 +6°C° 0 mm 5 mps 708 mmHg 66%
    10:00 +10°C° 0 mm 5 mps 709 mmHg 53%
    11:00 +10°C° 0 mm 6 mps 709 mmHg 52%
    12:00 +11°C° 0 mm 6 mps 709 mmHg 50%
    13:00 +13°C° 0 mm 6 mps 709 mmHg 48%
    14:00 +13°C° 0 mm 6 mps 709 mmHg 49%
    15:00 +12°C° 0 mm 5 mps 709 mmHg 49%
    16:00 +12°C° 0 mm 5 mps 709 mmHg 50%
    17:00 +8°C° 0 mm 4 mps 710 mmHg 58%
    18:00 +7°C° 0 mm 3 mps 710 mmHg 67%
    19:00 +5°C° 0 mm 2 mps 711 mmHg 76%
    20:00 +5°C° 0 mm 1 mps 711 mmHg 80%
    21:00 +4°C° 0 mm 1 mps 712 mmHg 84%
    22:00 +3°C° 0 mm 1 mps 712 mmHg 88%
    23:00 +3°C° 0 mm 1 mps 712 mmHg 88%

    23 August, Friday

    Time Temperature Precipitation Wind Pressure Humidity
    00:00 +2°C° 0 mm 1 mps 712 mmHg 88%
    01:00 +2°C° 0 mm 1 mps 712 mmHg 88%
    02:00 +1°C° 0 mm 1 mps 712 mmHg 87%
    03:00 +1°C° 0 mm 1 mps 712 mmHg 87%
    04:00 +1°C° 0 mm 1 mps 712 mmHg 86%
    05:00 +1°C° 0 mm 1 mps 713 mmHg 85%
    06:00 +1°C° 0 mm 1 mps 713 mmHg 84%
    07:00 0°C° 0 mm 0 mps 713 mmHg 83%
    08:00 +4°C° 0 mm 1 mps 713 mmHg 71%
    09:00 +7°C° 0 mm 1 mps 714 mmHg 60%
    10:00 +11°C° 0 mm 1 mps 714 mmHg 48%
    11:00 +12°C° 0 mm 2 mps 713 mmHg 48%
    12:00 +12°C° 0 mm 3 mps 713 mmHg 48%
    13:00 +13°C° 0 mm 4 mps 712 mmHg 48%
    14:00 +13°C° 0 mm 4 mps 712 mmHg 51%
    15:00 +13°C° 0 mm 4 mps 711 mmHg 54%
    16:00 +12°C° 0 mm 5 mps 711 mmHg 57%
    17:00 +10°C° 0 mm 4 mps 711 mmHg 68%
    18:00 +7°C° 0 mm 4 mps 711 mmHg 78%
    19:00 +5°C° 0 mm 3 mps 711 mmHg 88%
    20:00 +4°C° 0 mm 3 mps 711 mmHg 90%
    21:00 +4°C° 0 mm 3 mps 711 mmHg 91%
    22:00 +4°C° 0 mm 2 mps 710 mmHg 93%
    23:00 +4°C° 0 mm 2 mps 710 mmHg 93%
    Show more